UPP4101 UAKB-UACC

Flight info

Callsign UPP4101
Flight time N/A
Altitude 5000
Route 4949N07321E/GT1 4956N07321E/GT2 5000N07328E/KORIDOR3 4959N07252E/SARATOVKA 5002N07240E/ROSTOVKA 5033N07233E/OSAKAROVKA 5054N07209E/IZHEVSKOE 5060N07148E/ZHALTYRKOL
Aircraft AEST/L-S/N

Departure

Time N/A
Airport UAKB

Arrival

Time 2026-04-25 08:51
Airport Nursultan Nazarbayev International Airport (UACC)
Time Latitude Longitude Altitude Speed Heading
2026-04-25 08:01 49.73073 73.30082 1788 ft 0 kts 176°
2026-04-25 08:04 49.73065 73.30075 1788 ft 4 kts 243°
2026-04-25 08:05 49.73063 73.30053 1788 ft 0 kts 265°
2026-04-25 08:05 49.73064 73.30033 1788 ft 7 kts 277°
2026-04-25 08:05 49.73056 73.29977 1788 ft 5 kts 204°
2026-04-25 08:05 49.73016 73.29978 1788 ft 0 kts 175°
2026-04-25 08:06 49.72979 73.30065 1787 ft 27 kts 88°
2026-04-25 08:07 49.72989 73.30339 1786 ft 23 kts 86°
2026-04-25 08:07 49.73000 73.30522 1783 ft 7 kts 58°
2026-04-25 08:07 49.72994 73.30555 1783 ft 1 kts 232°
2026-04-25 08:07 49.72995 73.30529 1783 ft 0 kts 268°
2026-04-25 08:08 49.72994 73.30480 1783 ft 28 kts 268°
2026-04-25 08:08 49.72971 73.29833 1791 ft 85 kts 264°
2026-04-25 08:08 49.72948 73.28849 1914 ft 94 kts 264°
2026-04-25 08:08 49.72940 73.27809 2184 ft 100 kts 268°
2026-04-25 08:09 49.73351 73.26935 2324 ft 116 kts 339°
2026-04-25 08:09 49.74235 73.26809 2480 ft 141 kts 358°
2026-04-25 08:09 49.75107 73.27523 2558 ft 150 kts 41°
2026-04-25 08:09 49.76082 73.28437 2553 ft 176 kts 18°
2026-04-25 08:10 49.77241 73.29019 2712 ft 177 kts 16°
2026-04-25 08:10 49.78397 73.29665 2903 ft 176 kts 17°
2026-04-25 08:10 49.79548 73.30299 3094 ft 177 kts 17°
2026-04-25 08:10 49.80723 73.30936 3187 ft 183 kts 17°
2026-04-25 08:11 49.81932 73.31776 3146 ft 200 kts 32°
2026-04-25 08:11 49.83060 73.33129 3103 ft 211 kts 34°
2026-04-25 08:11 49.84389 73.34148 3089 ft 217 kts 15°
2026-04-25 08:11 49.85876 73.34544 3087 ft 219 kts 359°
2026-04-25 08:12 49.87406 73.34626 3079 ft 221 kts 357°
2026-04-25 08:12 49.88927 73.34667 3090 ft 219 kts 357°
2026-04-25 08:12 49.90456 73.34697 3091 ft 222 kts 357°
2026-04-25 08:12 49.92006 73.34737 3079 ft 224 kts 357°
2026-04-25 08:13 49.93558 73.34768 3066 ft 223 kts 356°
2026-04-25 08:13 49.95107 73.34798 3062 ft 224 kts 357°
2026-04-25 08:13 49.96629 73.35187 3035 ft 224 kts 22°
2026-04-25 08:14 49.99404 73.36754 3165 ft 213 kts 335°
2026-04-25 08:14 50.00043 73.34999 3097 ft 194 kts 260°
2026-04-25 08:14 49.99905 73.33044 3282 ft 180 kts 260°
2026-04-25 08:14 49.99800 73.31084 3362 ft 183 kts 261°
2026-04-25 08:15 49.99695 73.29163 3597 ft 175 kts 262°
2026-04-25 08:15 49.99587 73.27292 3739 ft 175 kts 260°
2026-04-25 08:15 49.99446 73.25456 4031 ft 167 kts 259°
2026-04-25 08:15 49.99373 73.23673 4294 ft 165 kts 263°
2026-04-25 08:16 49.99334 73.21947 4687 ft 155 kts 263°
2026-04-25 08:16 49.99286 73.20263 4872 ft 161 kts 263°
2026-04-25 08:16 49.99294 73.18505 4979 ft 165 kts 266°
2026-04-25 08:16 49.99243 73.16608 4822 ft 185 kts 261°
2026-04-25 08:17 49.99118 73.14572 4745 ft 194 kts 261°
2026-04-25 08:17 49.98982 73.12461 4664 ft 198 kts 261°
2026-04-25 08:17 49.98906 73.10326 4582 ft 198 kts 266°
2026-04-25 08:17 49.98975 73.08205 4516 ft 196 kts 268°
2026-04-25 08:18 49.99024 73.06125 4550 ft 189 kts 265°
2026-04-25 08:18 49.99002 73.04100 4618 ft 185 kts 264°
2026-04-25 08:18 49.98941 73.02113 4680 ft 182 kts 263°
2026-04-25 08:18 49.98875 73.00182 4729 ft 179 kts 262°
2026-04-25 08:19 49.98793 72.98267 4777 ft 177 kts 262°
2026-04-25 08:19 49.98714 72.96373 4828 ft 175 kts 262°
2026-04-25 08:19 49.98639 72.94510 4928 ft 172 kts 262°
2026-04-25 08:19 49.98609 72.93767 4960 ft 171 kts 262°
2026-04-25 08:20 49.98552 72.92246 4978 ft 173 kts 262°
2026-04-25 08:20 49.98478 72.90344 4960 ft 179 kts 262°
2026-04-25 08:20 49.98414 72.88403 4942 ft 182 kts 262°
2026-04-25 08:20 49.98339 72.86433 4940 ft 185 kts 261°
2026-04-25 08:21 49.98345 72.84440 4925 ft 184 kts 270°
2026-04-25 08:21 49.98586 72.82468 4934 ft 189 kts 279°
2026-04-25 08:21 49.99008 72.80546 4935 ft 189 kts 286°
2026-04-25 08:21 49.99538 72.78670 4951 ft 191 kts 289°
2026-04-25 08:22 50.00121 72.76822 4952 ft 191 kts 290°
2026-04-25 08:22 50.00725 72.74971 4937 ft 193 kts 291°
2026-04-25 08:22 50.01342 72.73106 4932 ft 196 kts 290°
2026-04-25 08:22 50.01930 72.71198 4941 ft 196 kts 289°
2026-04-25 08:23 50.02504 72.69280 4943 ft 196 kts 288°
2026-04-25 08:23 50.02798 72.67251 4941 ft 192 kts 271°
2026-04-25 08:23 50.02973 72.65202 4903 ft 191 kts 279°
2026-04-25 08:23 50.03539 72.63345 4950 ft 192 kts 298°
2026-04-25 08:24 50.04364 72.61704 4950 ft 194 kts 305°
2026-04-25 08:24 50.05303 72.60179 4938 ft 197 kts 309°
2026-04-25 08:24 50.06283 72.58702 4941 ft 196 kts 310°
2026-04-25 08:24 50.07279 72.57231 4938 ft 198 kts 310°
2026-04-25 08:25 50.08287 72.55768 4931 ft 198 kts 310°
2026-04-25 08:25 50.09306 72.54323 4931 ft 199 kts 310°
2026-04-25 08:25 50.10327 72.52877 4925 ft 199 kts 310°
2026-04-25 08:25 50.11343 72.51433 4933 ft 197 kts 310°
2026-04-25 08:26 50.12347 72.49998 4942 ft 196 kts 310°
2026-04-25 08:26 50.13350 72.48557 4929 ft 197 kts 310°
2026-04-25 08:26 50.14352 72.47100 4929 ft 198 kts 310°
2026-04-25 08:26 50.15369 72.45651 4936 ft 200 kts 310°
2026-04-25 08:27 50.16391 72.44175 4933 ft 201 kts 310°
2026-04-25 08:27 50.17424 72.42698 4931 ft 202 kts 310°
2026-04-25 08:27 50.18455 72.41226 4923 ft 202 kts 310°
2026-04-25 08:27 50.19495 72.39753 4929 ft 202 kts 310°
2026-04-25 08:28 50.20525 72.38262 4923 ft 204 kts 310°
2026-04-25 08:28 50.21559 72.36749 4926 ft 204 kts 310°
2026-04-25 08:28 50.22580 72.35235 4919 ft 203 kts 310°
2026-04-25 08:28 50.23606 72.33728 4920 ft 203 kts 310°
2026-04-25 08:29 50.24631 72.32231 4926 ft 202 kts 310°
2026-04-25 08:29 50.25662 72.30722 4928 ft 204 kts 310°
2026-04-25 08:29 50.26694 72.29211 4922 ft 204 kts 310°
2026-04-25 08:29 50.27724 72.27710 4925 ft 202 kts 310°
2026-04-25 08:30 50.28758 72.26218 4919 ft 204 kts 310°
2026-04-25 08:30 50.29800 72.24724 4922 ft 202 kts 310°
2026-04-25 08:30 50.30827 72.23247 4927 ft 201 kts 310°
2026-04-25 08:30 50.31855 72.21761 4925 ft 202 kts 310°
2026-04-25 08:31 50.32875 72.20261 4928 ft 201 kts 310°
2026-04-25 08:31 50.33893 72.18769 4922 ft 202 kts 310°
2026-04-25 08:31 50.34782 72.17083 4912 ft 201 kts 300°
2026-04-25 08:31 50.35768 72.15561 4883 ft 201 kts 322°
2026-04-25 08:32 50.37098 72.14930 4908 ft 204 kts 354°
2026-04-25 08:32 50.38484 72.15432 4920 ft 209 kts 25°
2026-04-25 08:32 50.39669 72.16772 4946 ft 212 kts 35°
2026-04-25 08:32 50.40971 72.17874 4926 ft 216 kts 18°
2026-04-25 08:33 50.42437 72.18164 4925 ft 214 kts 348°
2026-04-25 08:33 50.43859 72.17579 4928 ft 212 kts 338°
2026-04-25 08:33 50.45302 72.17148 4910 ft 212 kts 349°
2026-04-25 08:33 50.46774 72.17040 4920 ft 214 kts 354°
2026-04-25 08:34 50.48265 72.17010 4927 ft 215 kts 354°
2026-04-25 08:34 50.49761 72.16952 4924 ft 217 kts 353°
2026-04-25 08:34 50.51272 72.16877 4918 ft 218 kts 353°
2026-04-25 08:34 50.52779 72.16793 4897 ft 217 kts 353°
2026-04-25 08:35 50.54287 72.16726 4902 ft 217 kts 354°
2026-04-25 08:35 50.55793 72.16661 4917 ft 216 kts 353°
2026-04-25 08:35 50.57278 72.16584 4914 ft 212 kts 353°
2026-04-25 08:35 50.58739 72.16510 4912 ft 210 kts 354°
2026-04-25 08:36 50.60191 72.16446 4910 ft 210 kts 354°
2026-04-25 08:36 50.61642 72.16381 4911 ft 209 kts 353°
2026-04-25 08:36 50.63090 72.16311 4912 ft 207 kts 353°
2026-04-25 08:36 50.64520 72.16232 4912 ft 206 kts 353°
2026-04-25 08:37 50.65959 72.16172 4908 ft 208 kts 353°
2026-04-25 08:37 50.67390 72.16096 4923 ft 206 kts 353°
2026-04-25 08:37 50.68825 72.16031 4914 ft 207 kts 353°
2026-04-25 08:37 50.70258 72.15959 4906 ft 205 kts 353°
2026-04-25 08:38 50.71685 72.15887 4910 ft 206 kts 353°
2026-04-25 08:38 50.73118 72.15824 4910 ft 206 kts 352°
2026-04-25 08:38 50.74548 72.15750 4904 ft 206 kts 353°
2026-04-25 08:38 50.75971 72.15679 4906 ft 205 kts 353°
2026-04-25 08:39 50.77391 72.15611 4908 ft 204 kts 353°
2026-04-25 08:39 50.78809 72.15552 4908 ft 205 kts 353°
2026-04-25 08:39 50.80235 72.15482 4908 ft 205 kts 352°
2026-04-25 08:39 50.81657 72.15405 4903 ft 205 kts 352°
2026-04-25 08:40 50.83079 72.15340 4902 ft 206 kts 352°
2026-04-25 08:40 50.84510 72.15274 4900 ft 206 kts 352°
2026-04-25 08:40 50.85942 72.15200 4904 ft 205 kts 352°
2026-04-25 08:40 50.87366 72.15127 4902 ft 205 kts 352°
2026-04-25 08:41 50.88759 72.14786 4915 ft 202 kts 338°
2026-04-25 08:41 50.90014 72.13887 4928 ft 197 kts 312°
2026-04-25 08:41 50.90844 72.12234 4907 ft 191 kts 292°
2026-04-25 08:41 50.91375 72.10336 4868 ft 187 kts 285°
2026-04-25 08:42 50.91882 72.08461 4877 ft 184 kts 287°
2026-04-25 08:42 50.92407 72.06642 4901 ft 179 kts 287°
2026-04-25 08:42 50.92915 72.04858 4907 ft 178 kts 287°
2026-04-25 08:42 50.93425 72.03075 4898 ft 178 kts 287°
2026-04-25 08:43 50.93940 72.01286 4904 ft 179 kts 286°
2026-04-25 08:43 50.94451 71.99494 4908 ft 179 kts 286°
2026-04-25 08:43 50.94961 71.97708 4907 ft 178 kts 286°
2026-04-25 08:43 50.95472 71.95919 4910 ft 179 kts 286°
2026-04-25 08:44 50.95984 71.94131 4908 ft 178 kts 286°
2026-04-25 08:44 50.96491 71.92336 4906 ft 179 kts 286°
2026-04-25 08:44 50.97001 71.90537 4904 ft 179 kts 287°
2026-04-25 08:44 50.97513 71.88740 4910 ft 179 kts 287°
2026-04-25 08:45 50.98026 71.86954 4919 ft 178 kts 286°
2026-04-25 08:45 50.98529 71.85165 4912 ft 178 kts 287°
2026-04-25 08:45 50.99044 71.83378 4911 ft 178 kts 286°
2026-04-25 08:45 50.99472 71.81551 4908 ft 176 kts 282°
2026-04-25 08:46 50.99878 71.79721 4907 ft 176 kts 282°
2026-04-25 08:46 51.00287 71.77891 4914 ft 176 kts 283°
2026-04-25 08:46 51.00730 71.76083 4868 ft 178 kts 288°
2026-04-25 08:46 51.01373 71.74344 4700 ft 188 kts 295°
2026-04-25 08:47 51.02038 71.72535 4608 ft 191 kts 288°
2026-04-25 08:47 51.02552 71.70565 4451 ft 195 kts 285°
2026-04-25 08:47 51.03134 71.68627 4376 ft 194 kts 284°
2026-04-25 08:47 51.03473 71.66669 4276 ft 185 kts 279°
2026-04-25 08:48 51.03777 71.64632 4064 ft 190 kts 275°
2026-04-25 08:48 51.04103 71.62575 3835 ft 193 kts 279°
2026-04-25 08:48 51.04498 71.60612 3564 ft 183 kts 284°
2026-04-25 08:48 51.05121 71.58827 3105 ft 188 kts 295°
2026-04-25 08:49 51.05858 71.57152 2789 ft 184 kts 301°
2026-04-25 08:49 51.06642 71.55592 2567 ft 178 kts 292°
2026-04-25 08:49 51.06687 71.53862 2444 ft 153 kts 237°
2026-04-25 08:49 51.06077 71.52595 2095 ft 139 kts 225°
2026-04-25 08:50 51.05461 71.51593 1710 ft 116 kts 225°
2026-04-25 08:50 51.04920 71.50775 1519 ft 102 kts 226°
2026-04-25 08:50 51.04427 71.50011 1396 ft 93 kts 228°
2026-04-25 08:50 51.03970 71.49297 1303 ft 95 kts 228°
2026-04-25 08:51 51.03482 71.48528 1210 ft 97 kts 226°
2026-04-25 08:51 51.03076 71.47895 1165 ft 67 kts 226°
2026-04-25 08:51 51.02774 71.47426 1163 ft 59 kts 224°
2026-04-25 08:51 51.02524 71.47034 1164 ft 19 kts 227°
2026-04-25 08:52 51.02566 71.46850 1164 ft 23 kts 318°
2026-04-25 08:52 51.02589 71.46676 1164 ft 18 kts 224°
2026-04-25 08:52 51.02504 71.46543 1164 ft 25 kts 224°
2026-04-25 08:52 51.02390 71.46365 1164 ft 15 kts 223°
2026-04-25 08:53 51.02350 71.46249 1164 ft 11 kts 288°
2026-04-25 08:53 51.02367 71.46214 1164 ft 9 kts 316°
2026-04-25 08:53 51.02409 71.46116 1164 ft 15 kts 248°
2026-04-25 08:53 51.02315 71.45966 1164 ft 26 kts 224°
2026-04-25 08:54 51.02221 71.45779 1164 ft 18 kts 304°
2026-04-25 08:54 51.02231 71.45669 1164 ft 0 kts 227°